#datetime,building,power
2023-07-22T00:00:00,mfh,37.16
2023-07-22T00:01:00,mfh,37.12
2023-07-22T00:02:00,mfh,36.99
2023-07-22T00:03:00,mfh,36.37
2023-07-22T00:04:00,mfh,37.31
2023-07-22T00:05:00,mfh,37.29
2023-07-22T00:06:00,mfh,38.00
2023-07-22T00:07:00,mfh,38.03
2023-07-22T00:08:00,mfh,38.12
2023-07-22T00:09:00,mfh,36.54
2023-07-22T00:10:00,mfh,36.37
2023-07-22T00:11:00,mfh,35.86
2023-07-22T00:12:00,mfh,37.07
2023-07-22T00:13:00,mfh,37.11
2023-07-22T00:14:00,mfh,43.15
2023-07-22T00:15:00,mfh,43.49
2023-07-22T00:16:00,mfh,43.42
2023-07-22T00:17:00,mfh,42.16
2023-07-22T00:18:00,mfh,41.97
2023-07-22T00:19:00,mfh,41.95
2023-07-22T00:20:00,mfh,40.40
2023-07-22T00:21:00,mfh,40.31
2023-07-22T00:22:00,mfh,35.26
2023-07-22T00:23:00,mfh,36.41
2023-07-22T00:24:00,mfh,36.55
2023-07-22T00:25:00,mfh,36.52
2023-07-22T00:26:00,mfh,36.49
2023-07-22T00:27:00,mfh,35.73
2023-07-22T00:28:00,mfh,35.04
2023-07-22T00:29:00,mfh,34.96
2023-07-22T00:30:00,mfh,35.09
2023-07-22T00:31:00,mfh,35.15
2023-07-22T00:32:00,mfh,35.66
2023-07-22T00:33:00,mfh,36.34
2023-07-22T00:34:00,mfh,36.44
2023-07-22T00:35:00,mfh,36.46
2023-07-22T00:36:00,mfh,36.69
2023-07-22T00:37:00,mfh,36.00
2023-07-22T00:38:00,mfh,35.35
2023-07-22T00:39:00,mfh,35.32
2023-07-22T00:40:00,mfh,35.33
2023-07-22T00:41:00,mfh,36.52
2023-07-22T00:42:00,mfh,36.72
2023-07-22T00:43:00,mfh,36.67
2023-07-22T00:44:00,mfh,36.65
2023-07-22T00:45:00,mfh,36.63
2023-07-22T00:46:00,mfh,35.92
2023-07-22T00:47:00,mfh,35.22
2023-07-22T00:48:00,mfh,35.29
2023-07-22T00:49:00,mfh,35.42
2023-07-22T00:50:00,mfh,35.91
2023-07-22T00:51:00,mfh,36.59
2023-07-22T00:52:00,mfh,35.74
2023-07-22T00:53:00,mfh,36.64
2023-07-22T00:54:00,mfh,36.71
2023-07-22T00:55:00,mfh,36.29
2023-07-22T00:56:00,mfh,36.42
2023-07-22T00:57:00,mfh,35.27
2023-07-22T00:58:00,mfh,35.36
2023-07-22T00:59:00,mfh,35.95
2023-07-22T01:00:00,mfh,35.91
2023-07-22T01:01:00,mfh,37.08
2023-07-22T01:02:00,mfh,37.32
2023-07-22T01:03:00,mfh,36.01
2023-07-22T01:04:00,mfh,35.94
2023-07-22T01:05:00,mfh,36.03
2023-07-22T01:06:00,mfh,36.02
2023-07-22T01:07:00,mfh,35.84
2023-07-22T01:08:00,mfh,35.79
2023-07-22T01:09:00,mfh,35.81
2023-07-22T01:10:00,mfh,36.35
2023-07-22T01:11:00,mfh,36.53
2023-07-22T01:12:00,mfh,36.56
2023-07-22T01:13:00,mfh,35.99
2023-07-22T01:14:00,mfh,36.14
2023-07-22T01:15:00,mfh,35.43
2023-07-22T01:16:00,mfh,36.05
2023-07-22T01:17:00,mfh,35.90
2023-07-22T01:18:00,mfh,35.92
2023-07-22T01:19:00,mfh,37.46
2023-07-22T01:20:00,mfh,38.41
2023-07-22T01:21:00,mfh,38.30
2023-07-22T01:22:00,mfh,37.85
2023-07-22T01:23:00,mfh,37.90
2023-07-22T01:24:00,mfh,37.84
2023-07-22T01:25:00,mfh,36.12
2023-07-22T01:26:00,mfh,36.04
2023-07-22T01:27:00,mfh,36.16
2023-07-22T01:28:00,mfh,36.16
2023-07-22T01:29:00,mfh,36.09
2023-07-22T01:30:00,mfh,35.62
2023-07-22T01:31:00,mfh,36.55
2023-07-22T01:32:00,mfh,36.73
2023-07-22T01:33:00,mfh,36.85
2023-07-22T01:34:00,mfh,37.03
2023-07-22T01:35:00,mfh,36.26
2023-07-22T01:36:00,mfh,36.26
2023-07-22T01:37:00,mfh,36.23
2023-07-22T01:38:00,mfh,36.85
2023-07-22T01:39:00,mfh,36.09
2023-07-22T01:40:00,mfh,36.39
2023-07-22T01:41:00,mfh,36.33
2023-07-22T01:42:00,mfh,36.17
2023-07-22T01:43:00,mfh,36.74
2023-07-22T01:44:00,mfh,36.20
2023-07-22T01:45:00,mfh,36.19
2023-07-22T01:46:00,mfh,36.20
2023-07-22T01:47:00,mfh,35.51
2023-07-22T01:48:00,mfh,35.51
2023-07-22T01:49:00,mfh,36.19
2023-07-22T01:50:00,mfh,36.54
2023-07-22T01:51:00,mfh,37.10
2023-07-22T01:52:00,mfh,37.32
2023-07-22T01:53:00,mfh,37.44
2023-07-22T01:54:00,mfh,36.70
2023-07-22T01:55:00,mfh,35.99
2023-07-22T01:56:00,mfh,35.21
2023-07-22T01:57:00,mfh,36.03
2023-07-22T01:58:00,mfh,36.27
2023-07-22T01:59:00,mfh,37.15
2023-07-22T02:00:00,mfh,37.19
2023-07-22T02:01:00,mfh,36.63
2023-07-22T02:02:00,mfh,36.66
2023-07-22T02:03:00,mfh,35.98
2023-07-22T02:04:00,mfh,36.08
2023-07-22T02:05:00,mfh,35.45
2023-07-22T02:06:00,mfh,36.06
2023-07-22T02:07:00,mfh,36.06
2023-07-22T02:08:00,mfh,36.82
2023-07-22T02:09:00,mfh,36.85
2023-07-22T02:10:00,mfh,36.84
2023-07-22T02:11:00,mfh,36.07
2023-07-22T02:12:00,mfh,36.11
2023-07-22T02:13:00,mfh,35.39
2023-07-22T02:14:00,mfh,35.35
2023-07-22T02:15:00,mfh,36.34
2023-07-22T02:16:00,mfh,35.42
2023-07-22T02:17:00,mfh,36.85
2023-07-22T02:18:00,mfh,36.82
2023-07-22T02:19:00,mfh,36.94
2023-07-22T02:20:00,mfh,36.78
2023-07-22T02:21:00,mfh,36.76
2023-07-22T02:22:00,mfh,35.33
2023-07-22T02:23:00,mfh,35.32
2023-07-22T02:24:00,mfh,35.32
2023-07-22T02:25:00,mfh,35.30
2023-07-22T02:26:00,mfh,36.03
2023-07-22T02:27:00,mfh,36.90
2023-07-22T02:28:00,mfh,36.86
2023-07-22T02:29:00,mfh,37.02
2023-07-22T02:30:00,mfh,37.04
2023-07-22T02:31:00,mfh,36.32
2023-07-22T02:32:00,mfh,35.44
2023-07-22T02:33:00,mfh,35.52
2023-07-22T02:34:00,mfh,36.16
2023-07-22T02:35:00,mfh,36.28
2023-07-22T02:36:00,mfh,36.22
2023-07-22T02:37:00,mfh,36.17
2023-07-22T02:38:00,mfh,37.03
2023-07-22T02:39:00,mfh,36.43
2023-07-22T02:40:00,mfh,36.53
2023-07-22T02:41:00,mfh,37.39
2023-07-22T02:42:00,mfh,36.91
2023-07-22T02:43:00,mfh,37.58
2023-07-22T02:44:00,mfh,37.07
2023-07-22T02:45:00,mfh,36.21
2023-07-22T02:46:00,mfh,36.31
2023-07-22T02:47:00,mfh,37.31
2023-07-22T02:48:00,mfh,36.89
2023-07-22T02:49:00,mfh,37.01
2023-07-22T02:50:00,mfh,36.14
2023-07-22T02:51:00,mfh,36.75
2023-07-22T02:52:00,mfh,36.72
2023-07-22T02:53:00,mfh,36.02
2023-07-22T02:54:00,mfh,36.04
2023-07-22T02:55:00,mfh,36.12
2023-07-22T02:56:00,mfh,36.00
2023-07-22T02:57:00,mfh,36.01
2023-07-22T02:58:00,mfh,35.95
2023-07-22T02:59:00,mfh,35.94
2023-07-22T03:00:00,mfh,37.40
2023-07-22T03:01:00,mfh,35.79
2023-07-22T03:02:00,mfh,35.72
2023-07-22T03:03:00,mfh,35.80
2023-07-22T03:04:00,mfh,35.89
2023-07-22T03:05:00,mfh,35.83
2023-07-22T03:06:00,mfh,35.15
2023-07-22T03:07:00,mfh,35.99
2023-07-22T03:08:00,mfh,35.95
2023-07-22T03:09:00,mfh,36.53
2023-07-22T03:10:00,mfh,36.49
2023-07-22T03:11:00,mfh,36.50
2023-07-22T03:12:00,mfh,35.88
2023-07-22T03:13:00,mfh,36.00
2023-07-22T03:14:00,mfh,35.25
2023-07-22T03:15:00,mfh,35.24
2023-07-22T03:16:00,mfh,35.22
2023-07-22T03:17:00,mfh,35.32
2023-07-22T03:18:00,mfh,36.75
2023-07-22T03:19:00,mfh,37.85
2023-07-22T03:20:00,mfh,37.14
2023-07-22T03:21:00,mfh,37.25
2023-07-22T03:22:00,mfh,36.85
2023-07-22T03:23:00,mfh,35.37
2023-07-22T03:24:00,mfh,35.32
2023-07-22T03:25:00,mfh,35.32
2023-07-22T03:26:00,mfh,36.08
2023-07-22T03:27:00,mfh,36.58
2023-07-22T03:28:00,mfh,36.62
2023-07-22T03:29:00,mfh,36.66
2023-07-22T03:30:00,mfh,36.87
2023-07-22T03:31:00,mfh,36.22
2023-07-22T03:32:00,mfh,35.47
2023-07-22T03:33:00,mfh,35.56
2023-07-22T03:34:00,mfh,35.55
2023-07-22T03:35:00,mfh,35.64
2023-07-22T03:36:00,mfh,36.19
2023-07-22T03:37:00,mfh,37.03
2023-07-22T03:38:00,mfh,37.12
2023-07-22T03:39:00,mfh,36.91
2023-07-22T03:40:00,mfh,36.20
2023-07-22T03:41:00,mfh,36.16
2023-07-22T03:42:00,mfh,35.39
2023-07-22T03:43:00,mfh,35.34
2023-07-22T03:44:00,mfh,36.64
2023-07-22T03:45:00,mfh,36.25
2023-07-22T03:46:00,mfh,36.77
2023-07-22T03:47:00,mfh,37.02
2023-07-22T03:48:00,mfh,37.24
2023-07-22T03:49:00,mfh,36.27
2023-07-22T03:50:00,mfh,36.13
2023-07-22T03:51:00,mfh,36.14
2023-07-22T03:52:00,mfh,35.44
2023-07-22T03:53:00,mfh,36.11
2023-07-22T03:54:00,mfh,36.12
2023-07-22T03:55:00,mfh,36.18
2023-07-22T03:56:00,mfh,36.19
2023-07-22T03:57:00,mfh,36.36
2023-07-22T03:58:00,mfh,37.46
2023-07-22T03:59:00,mfh,37.38
2023-07-22T04:00:00,mfh,36.99
2023-07-22T04:01:00,mfh,37.63
2023-07-22T04:02:00,mfh,36.12
2023-07-22T04:03:00,mfh,36.04
2023-07-22T04:04:00,mfh,36.10
2023-07-22T04:05:00,mfh,35.40
2023-07-22T04:06:00,mfh,36.18
2023-07-22T04:07:00,mfh,36.44
2023-07-22T04:08:00,mfh,36.51
2023-07-22T04:09:00,mfh,37.35
2023-07-22T04:10:00,mfh,37.45
2023-07-22T04:11:00,mfh,37.96
2023-07-22T04:12:00,mfh,37.28
2023-07-22T04:13:00,mfh,36.42
2023-07-22T04:14:00,mfh,36.40
2023-07-22T04:15:00,mfh,36.74
2023-07-22T04:16:00,mfh,35.43
2023-07-22T04:17:00,mfh,36.37
2023-07-22T04:18:00,mfh,36.92
2023-07-22T04:19:00,mfh,36.91
2023-07-22T04:20:00,mfh,37.64
2023-07-22T04:21:00,mfh,39.52
2023-07-22T04:22:00,mfh,39.59
2023-07-22T04:23:00,mfh,38.81
2023-07-22T04:24:00,mfh,38.59
2023-07-22T04:25:00,mfh,38.47
2023-07-22T04:26:00,mfh,39.04
2023-07-22T04:27:00,mfh,39.11
2023-07-22T04:28:00,mfh,39.16
2023-07-22T04:29:00,mfh,39.83
2023-07-22T04:30:00,mfh,39.82
2023-07-22T04:31:00,mfh,39.20
2023-07-22T04:32:00,mfh,39.20
2023-07-22T04:33:00,mfh,39.07
2023-07-22T04:34:00,mfh,39.59
2023-07-22T04:35:00,mfh,39.06
2023-07-22T04:36:00,mfh,39.38
2023-07-22T04:37:00,mfh,38.98
2023-07-22T04:38:00,mfh,39.02
2023-07-22T04:39:00,mfh,39.20
2023-07-22T04:40:00,mfh,39.01
2023-07-22T04:41:00,mfh,39.18
2023-07-22T04:42:00,mfh,39.08
2023-07-22T04:43:00,mfh,39.61
2023-07-22T04:44:00,mfh,39.66
2023-07-22T04:45:00,mfh,39.62
2023-07-22T04:46:00,mfh,38.99
2023-07-22T04:47:00,mfh,39.20
2023-07-22T04:48:00,mfh,38.41
2023-07-22T04:49:00,mfh,38.49
2023-07-22T04:50:00,mfh,38.42
2023-07-22T04:51:00,mfh,38.31
2023-07-22T04:52:00,mfh,39.82
2023-07-22T04:53:00,mfh,39.91
2023-07-22T04:54:00,mfh,40.11
2023-07-22T04:55:00,mfh,40.16
2023-07-22T04:56:00,mfh,40.02
2023-07-22T04:57:00,mfh,38.09
2023-07-22T04:58:00,mfh,36.67
2023-07-22T04:59:00,mfh,36.66
2023-07-22T05:00:00,mfh,38.36
2023-07-22T05:01:00,mfh,54.52
2023-07-22T05:02:00,mfh,58.25
2023-07-22T05:03:00,mfh,57.96
2023-07-22T05:04:00,mfh,57.38
2023-07-22T05:05:00,mfh,56.82
2023-07-22T05:06:00,mfh,56.73
2023-07-22T05:07:00,mfh,56.89
2023-07-22T05:08:00,mfh,56.78
2023-07-22T05:09:00,mfh,57.12
2023-07-22T05:10:00,mfh,56.88
2023-07-22T05:11:00,mfh,56.75
2023-07-22T05:12:00,mfh,57.34
2023-07-22T05:13:00,mfh,57.55
2023-07-22T05:14:00,mfh,57.65
2023-07-22T05:15:00,mfh,57.65
2023-07-22T05:16:00,mfh,57.17
2023-07-22T05:17:00,mfh,57.22
2023-07-22T05:18:00,mfh,56.88
2023-07-22T05:19:00,mfh,57.03
2023-07-22T05:20:00,mfh,57.68
2023-07-22T05:21:00,mfh,58.00
2023-07-22T05:22:00,mfh,58.77
2023-07-22T05:23:00,mfh,58.27
2023-07-22T05:24:00,mfh,56.94
2023-07-22T05:25:00,mfh,57.07
2023-07-22T05:26:00,mfh,57.08
2023-07-22T05:27:00,mfh,57.78
2023-07-22T05:28:00,mfh,56.15
2023-07-22T05:29:00,mfh,56.27
2023-07-22T05:30:00,mfh,56.06
2023-07-22T05:31:00,mfh,56.16
2023-07-22T05:32:00,mfh,54.91
2023-07-22T05:33:00,mfh,54.22
2023-07-22T05:34:00,mfh,54.46
2023-07-22T05:35:00,mfh,55.52
2023-07-22T05:36:00,mfh,55.43
2023-07-22T05:37:00,mfh,55.35
2023-07-22T05:38:00,mfh,55.68
2023-07-22T05:39:00,mfh,56.25
2023-07-22T05:40:00,mfh,54.82
2023-07-22T05:41:00,mfh,54.26
2023-07-22T05:42:00,mfh,54.24
2023-07-22T05:43:00,mfh,54.35
2023-07-22T05:44:00,mfh,55.38
2023-07-22T05:45:00,mfh,55.63
2023-07-22T05:46:00,mfh,55.43
2023-07-22T05:47:00,mfh,55.63
2023-07-22T05:48:00,mfh,55.76
2023-07-22T05:49:00,mfh,54.67
2023-07-22T05:50:00,mfh,53.80
2023-07-22T05:51:00,mfh,53.42
2023-07-22T05:52:00,mfh,53.56
2023-07-22T05:53:00,mfh,54.85
2023-07-22T05:54:00,mfh,54.83
2023-07-22T05:55:00,mfh,54.87
2023-07-22T05:56:00,mfh,54.84
2023-07-22T05:57:00,mfh,53.53
2023-07-22T05:58:00,mfh,53.61
2023-07-22T05:59:00,mfh,53.47
2023-07-22T06:00:00,mfh,54.25
2023-07-22T06:01:00,mfh,55.01
2023-07-22T06:02:00,mfh,55.05
2023-07-22T06:03:00,mfh,54.81
2023-07-22T06:04:00,mfh,54.73
2023-07-22T06:05:00,mfh,54.14
2023-07-22T06:06:00,mfh,53.45
2023-07-22T06:07:00,mfh,53.54
2023-07-22T06:08:00,mfh,54.39
2023-07-22T06:09:00,mfh,55.02
2023-07-22T06:10:00,mfh,55.20
2023-07-22T06:11:00,mfh,55.46
2023-07-22T06:12:00,mfh,55.47
2023-07-22T06:13:00,mfh,55.66
2023-07-22T06:14:00,mfh,54.44
2023-07-22T06:15:00,mfh,54.13
2023-07-22T06:16:00,mfh,54.11
2023-07-22T06:17:00,mfh,54.35
2023-07-22T06:18:00,mfh,54.10
2023-07-22T06:19:00,mfh,54.13
2023-07-22T06:20:00,mfh,55.07
2023-07-22T06:21:00,mfh,54.84
2023-07-22T06:22:00,mfh,54.83
2023-07-22T06:23:00,mfh,54.39
2023-07-22T06:24:00,mfh,53.70
2023-07-22T06:25:00,mfh,53.75
2023-07-22T06:26:00,mfh,54.51
2023-07-22T06:27:00,mfh,53.65
2023-07-22T06:28:00,mfh,53.63
2023-07-22T06:29:00,mfh,53.69
2023-07-22T06:30:00,mfh,53.64
2023-07-22T06:31:00,mfh,54.25
2023-07-22T06:32:00,mfh,53.35
2023-07-22T06:33:00,mfh,53.45
2023-07-22T06:34:00,mfh,53.28
2023-07-22T06:35:00,mfh,53.28
2023-07-22T06:36:00,mfh,53.28
2023-07-22T06:37:00,mfh,53.29
2023-07-22T06:38:00,mfh,54.06
2023-07-22T06:39:00,mfh,53.51
2023-07-22T06:40:00,mfh,53.29
2023-07-22T06:41:00,mfh,53.17
2023-07-22T06:42:00,mfh,53.10
2023-07-22T06:43:00,mfh,53.14
2023-07-22T06:44:00,mfh,53.03
2023-07-22T06:45:00,mfh,53.27
2023-07-22T06:46:00,mfh,54.07
2023-07-22T06:47:00,mfh,54.89
2023-07-22T06:48:00,mfh,53.47
2023-07-22T06:49:00,mfh,53.30
2023-07-22T06:50:00,mfh,53.29
2023-07-22T06:51:00,mfh,53.27
2023-07-22T06:52:00,mfh,52.94
2023-07-22T06:53:00,mfh,53.23
2023-07-22T06:54:00,mfh,53.84
2023-07-22T06:55:00,mfh,53.87
2023-07-22T06:56:00,mfh,54.23
2023-07-22T06:57:00,mfh,53.56
2023-07-22T06:58:00,mfh,53.54
2023-07-22T06:59:00,mfh,52.58
2023-07-22T07:00:00,mfh,52.55
2023-07-22T07:01:00,mfh,53.05
2023-07-22T07:02:00,mfh,53.69
2023-07-22T07:03:00,mfh,53.86
2023-07-22T07:04:00,mfh,54.06
2023-07-22T07:05:00,mfh,53.10
2023-07-22T07:06:00,mfh,52.90
2023-07-22T07:07:00,mfh,53.26
2023-07-22T07:08:00,mfh,52.69
2023-07-22T07:09:00,mfh,53.25
2023-07-22T07:10:00,mfh,53.42
2023-07-22T07:11:00,mfh,52.85
2023-07-22T07:12:00,mfh,52.85
2023-07-22T07:13:00,mfh,52.98
2023-07-22T07:14:00,mfh,53.12
2023-07-22T07:15:00,mfh,53.17
2023-07-22T07:16:00,mfh,53.24
2023-07-22T07:17:00,mfh,53.89
2023-07-22T07:18:00,mfh,53.89
2023-07-22T07:19:00,mfh,53.19
2023-07-22T07:20:00,mfh,53.21
2023-07-22T07:21:00,mfh,53.15
2023-07-22T07:22:00,mfh,53.10
2023-07-22T07:23:00,mfh,53.10
2023-07-22T07:24:00,mfh,53.22
2023-07-22T07:25:00,mfh,53.43
2023-07-22T07:26:00,mfh,54.00
2023-07-22T07:27:00,mfh,53.19
2023-07-22T07:28:00,mfh,53.25
2023-07-22T07:29:00,mfh,53.21
2023-07-22T07:30:00,mfh,53.79
2023-07-22T07:31:00,mfh,53.15
2023-07-22T07:32:00,mfh,53.07
2023-07-22T07:33:00,mfh,53.07
2023-07-22T07:34:00,mfh,53.09
2023-07-22T07:35:00,mfh,53.05
2023-07-22T07:36:00,mfh,52.93
2023-07-22T07:37:00,mfh,53.24
2023-07-22T07:38:00,mfh,53.61
2023-07-22T07:39:00,mfh,53.64
2023-07-22T07:40:00,mfh,52.99
2023-07-22T07:41:00,mfh,53.19
2023-07-22T07:42:00,mfh,53.05
2023-07-22T07:43:00,mfh,53.07
2023-07-22T07:44:00,mfh,53.31
2023-07-22T07:45:00,mfh,53.27
2023-07-22T07:46:00,mfh,53.72
2023-07-22T07:47:00,mfh,53.85
2023-07-22T07:48:00,mfh,53.91
2023-07-22T07:49:00,mfh,53.05
2023-07-22T07:50:00,mfh,53.20
2023-07-22T07:51:00,mfh,52.61
2023-07-22T07:52:00,mfh,53.36
2023-07-22T07:53:00,mfh,53.38
2023-07-22T07:54:00,mfh,54.04
2023-07-22T07:55:00,mfh,53.63
2023-07-22T07:56:00,mfh,53.90
2023-07-22T07:57:00,mfh,53.45
2023-07-22T07:58:00,mfh,53.55
2023-07-22T07:59:00,mfh,52.77
2023-07-22T08:00:00,mfh,53.05
2023-07-22T08:01:00,mfh,53.94
2023-07-22T08:02:00,mfh,54.22
2023-07-22T08:03:00,mfh,54.35
2023-07-22T08:04:00,mfh,66.81
2023-07-22T08:05:00,mfh,67.65
2023-07-22T08:06:00,mfh,78.95
2023-07-22T08:07:00,mfh,78.40
2023-07-22T08:08:00,mfh,77.82
2023-07-22T08:09:00,mfh,77.18
2023-07-22T08:10:00,mfh,76.52
2023-07-22T08:11:00,mfh,77.09
2023-07-22T08:12:00,mfh,76.64
2023-07-22T08:13:00,mfh,69.67
2023-07-22T08:14:00,mfh,68.94
2023-07-22T08:15:00,mfh,63.65
2023-07-22T08:16:00,mfh,63.01
2023-07-22T08:17:00,mfh,63.04
2023-07-22T08:18:00,mfh,57.10
2023-07-22T08:19:00,mfh,52.94
2023-07-22T08:20:00,mfh,52.80
2023-07-22T08:21:00,mfh,53.12
2023-07-22T08:22:00,mfh,53.10
2023-07-22T08:23:00,mfh,52.76
2023-07-22T08:24:00,mfh,52.76
2023-07-22T08:25:00,mfh,52.13
2023-07-22T08:26:00,mfh,52.11
2023-07-22T08:27:00,mfh,53.02
2023-07-22T08:28:00,mfh,54.01
2023-07-22T08:29:00,mfh,54.60
2023-07-22T08:30:00,mfh,54.76
2023-07-22T08:31:00,mfh,58.25
2023-07-22T08:32:00,mfh,58.30
2023-07-22T08:33:00,mfh,56.77
2023-07-22T08:34:00,mfh,57.09
2023-07-22T08:35:00,mfh,57.30
2023-07-22T08:36:00,mfh,58.57
2023-07-22T08:37:00,mfh,58.84
2023-07-22T08:38:00,mfh,58.62
2023-07-22T08:39:00,mfh,58.76
2023-07-22T08:40:00,mfh,58.00
2023-07-22T08:41:00,mfh,58.04
2023-07-22T08:42:00,mfh,58.21
2023-07-22T08:43:00,mfh,58.42
2023-07-22T08:44:00,mfh,57.50
2023-07-22T08:45:00,mfh,57.40
2023-07-22T08:46:00,mfh,59.26
2023-07-22T08:47:00,mfh,59.18
2023-07-22T08:48:00,mfh,58.60
2023-07-22T08:49:00,mfh,57.91
2023-07-22T08:50:00,mfh,57.84
2023-07-22T08:51:00,mfh,58.14
2023-07-22T08:52:00,mfh,58.50
2023-07-22T08:53:00,mfh,57.48
2023-07-22T08:54:00,mfh,57.63
2023-07-22T08:55:00,mfh,57.51
2023-07-22T08:56:00,mfh,58.98
2023-07-22T08:57:00,mfh,58.30
2023-07-22T08:58:00,mfh,58.58
2023-07-22T08:59:00,mfh,52.47
2023-07-22T09:00:00,mfh,53.99
2023-07-22T09:01:00,mfh,63.59
2023-07-22T09:02:00,mfh,63.82
2023-07-22T09:03:00,mfh,64.45
2023-07-22T09:04:00,mfh,64.08
2023-07-22T09:05:00,mfh,63.76
2023-07-22T09:06:00,mfh,62.87
2023-07-22T09:07:00,mfh,63.90
2023-07-22T09:08:00,mfh,63.47
2023-07-22T09:09:00,mfh,64.06
2023-07-22T09:10:00,mfh,63.99
2023-07-22T09:11:00,mfh,63.87
2023-07-22T09:12:00,mfh,64.67
2023-07-22T09:13:00,mfh,64.25
2023-07-22T09:14:00,mfh,64.20
2023-07-22T09:15:00,mfh,62.55
2023-07-22T09:16:00,mfh,62.57
2023-07-22T09:17:00,mfh,62.82
2023-07-22T09:18:00,mfh,81.92
2023-07-22T09:19:00,mfh,82.13
2023-07-22T09:20:00,mfh,81.84
2023-07-22T09:21:00,mfh,82.48
2023-07-22T09:22:00,mfh,82.53
2023-07-22T09:23:00,mfh,82.12
2023-07-22T09:24:00,mfh,81.90
2023-07-22T09:25:00,mfh,82.65
2023-07-22T09:26:00,mfh,77.29
2023-07-22T09:27:00,mfh,71.10
2023-07-22T09:28:00,mfh,71.02
2023-07-22T09:29:00,mfh,72.09
2023-07-22T09:30:00,mfh,67.54
2023-07-22T09:31:00,mfh,66.85
2023-07-22T09:32:00,mfh,67.14
2023-07-22T09:33:00,mfh,67.47
2023-07-22T09:34:00,mfh,67.67
2023-07-22T09:35:00,mfh,67.81
2023-07-22T09:36:00,mfh,68.05
2023-07-22T09:37:00,mfh,67.53
2023-07-22T09:38:00,mfh,70.06
2023-07-22T09:39:00,mfh,75.18
2023-07-22T09:40:00,mfh,75.09
2023-07-22T09:41:00,mfh,74.89
2023-07-22T09:42:00,mfh,79.03
2023-07-22T09:43:00,mfh,79.20
2023-07-22T09:44:00,mfh,79.56
2023-07-22T09:45:00,mfh,78.70
2023-07-22T09:46:00,mfh,78.66
2023-07-22T09:47:00,mfh,78.48
2023-07-22T09:48:00,mfh,76.60
2023-07-22T09:49:00,mfh,76.65
2023-07-22T09:50:00,mfh,76.42
2023-07-22T09:51:00,mfh,77.66
2023-07-22T09:52:00,mfh,77.72
2023-07-22T09:53:00,mfh,77.42
2023-07-22T09:54:00,mfh,77.72
2023-07-22T09:55:00,mfh,78.00
2023-07-22T09:56:00,mfh,77.96
2023-07-22T09:57:00,mfh,78.63
2023-07-22T09:58:00,mfh,76.43
2023-07-22T09:59:00,mfh,76.61
2023-07-22T10:00:00,mfh,76.82
2023-07-22T10:01:00,mfh,82.87
2023-07-22T10:02:00,mfh,82.96
2023-07-22T10:03:00,mfh,82.51
2023-07-22T10:04:00,mfh,82.32
2023-07-22T10:05:00,mfh,82.27
2023-07-22T10:06:00,mfh,84.88
2023-07-22T10:07:00,mfh,84.65
2023-07-22T10:08:00,mfh,84.44
2023-07-22T10:09:00,mfh,84.71
2023-07-22T10:10:00,mfh,84.76
2023-07-22T10:11:00,mfh,88.33
2023-07-22T10:12:00,mfh,87.89
2023-07-22T10:13:00,mfh,87.95
2023-07-22T10:14:00,mfh,87.90
2023-07-22T10:15:00,mfh,87.86
2023-07-22T10:16:00,mfh,87.66
2023-07-22T10:17:00,mfh,87.50
2023-07-22T10:18:00,mfh,87.45
2023-07-22T10:19:00,mfh,87.64
2023-07-22T10:20:00,mfh,87.61
2023-07-22T10:21:00,mfh,87.62
2023-07-22T10:22:00,mfh,87.60
2023-07-22T10:23:00,mfh,87.45
2023-07-22T10:24:00,mfh,87.53
2023-07-22T10:25:00,mfh,87.50
2023-07-22T10:26:00,mfh,87.44
2023-07-22T10:27:00,mfh,87.42
2023-07-22T10:28:00,mfh,87.27
2023-07-22T10:29:00,mfh,87.15
2023-07-22T10:30:00,mfh,87.16
2023-07-22T10:31:00,mfh,87.48
2023-07-22T10:32:00,mfh,87.22
2023-07-22T10:33:00,mfh,87.23
2023-07-22T10:34:00,mfh,87.23
2023-07-22T10:35:00,mfh,87.28
2023-07-22T10:36:00,mfh,87.36
2023-07-22T10:37:00,mfh,87.13
2023-07-22T10:38:00,mfh,87.18
2023-07-22T10:39:00,mfh,87.13
2023-07-22T10:40:00,mfh,87.31
2023-07-22T10:41:00,mfh,87.51
2023-07-22T10:42:00,mfh,87.12
2023-07-22T10:43:00,mfh,87.09
2023-07-22T10:44:00,mfh,87.17
2023-07-22T10:45:00,mfh,87.27
2023-07-22T10:46:00,mfh,87.07
2023-07-22T10:47:00,mfh,87.02
2023-07-22T10:48:00,mfh,86.94
2023-07-22T10:49:00,mfh,87.17
2023-07-22T10:50:00,mfh,87.21
2023-07-22T10:51:00,mfh,87.21
2023-07-22T10:52:00,mfh,85.08
2023-07-22T10:53:00,mfh,84.79
2023-07-22T10:54:00,mfh,84.61
2023-07-22T10:55:00,mfh,87.03
2023-07-22T10:56:00,mfh,87.09
2023-07-22T10:57:00,mfh,87.16
2023-07-22T10:58:00,mfh,87.40
2023-07-22T10:59:00,mfh,87.35
2023-07-22T11:00:00,mfh,87.27
2023-07-22T11:01:00,mfh,87.38
2023-07-22T11:02:00,mfh,87.16
2023-07-22T11:03:00,mfh,87.09
2023-07-22T11:04:00,mfh,86.94
2023-07-22T11:05:00,mfh,86.94
2023-07-22T11:06:00,mfh,87.16
2023-07-22T11:07:00,mfh,87.31
2023-07-22T11:08:00,mfh,87.27
2023-07-22T11:09:00,mfh,87.22
2023-07-22T11:10:00,mfh,87.20
2023-07-22T11:11:00,mfh,87.18
2023-07-22T11:12:00,mfh,87.19
2023-07-22T11:13:00,mfh,87.22
2023-07-22T11:14:00,mfh,87.00
2023-07-22T11:15:00,mfh,86.78
2023-07-22T11:16:00,mfh,86.84
2023-07-22T11:17:00,mfh,87.05
2023-07-22T11:18:00,mfh,87.11
2023-07-22T11:19:00,mfh,87.11
2023-07-22T11:20:00,mfh,87.06
2023-07-22T11:21:00,mfh,87.02
2023-07-22T11:22:00,mfh,87.02
2023-07-22T11:23:00,mfh,84.12
2023-07-22T11:24:00,mfh,84.25
2023-07-22T11:25:00,mfh,82.33
2023-07-22T11:26:00,mfh,80.14
2023-07-22T11:27:00,mfh,80.21
2023-07-22T11:28:00,mfh,80.56
2023-07-22T11:29:00,mfh,75.47
2023-07-22T11:30:00,mfh,75.92
2023-07-22T11:31:00,mfh,75.85
2023-07-22T11:32:00,mfh,75.85
2023-07-22T11:33:00,mfh,75.14
2023-07-22T11:34:00,mfh,75.20
2023-07-22T11:35:00,mfh,75.40
2023-07-22T11:36:00,mfh,75.69
2023-07-22T11:37:00,mfh,74.97
2023-07-22T11:38:00,mfh,75.65
2023-07-22T11:39:00,mfh,75.63
2023-07-22T11:40:00,mfh,75.72
2023-07-22T11:41:00,mfh,76.43
2023-07-22T11:42:00,mfh,75.81
2023-07-22T11:43:00,mfh,75.27
2023-07-22T11:44:00,mfh,75.23
2023-07-22T11:45:00,mfh,75.34
2023-07-22T11:46:00,mfh,76.11
2023-07-22T11:47:00,mfh,76.00
2023-07-22T11:48:00,mfh,75.76
2023-07-22T11:49:00,mfh,75.68
2023-07-22T11:50:00,mfh,76.49
2023-07-22T11:51:00,mfh,75.75
2023-07-22T11:52:00,mfh,75.91
2023-07-22T11:53:00,mfh,75.82
2023-07-22T11:54:00,mfh,76.05
2023-07-22T11:55:00,mfh,76.18
2023-07-22T11:56:00,mfh,75.88
2023-07-22T11:57:00,mfh,75.35
2023-07-22T11:58:00,mfh,74.94
2023-07-22T11:59:00,mfh,74.90
2023-07-22T12:00:00,mfh,75.59
2023-07-22T12:01:00,mfh,74.94
2023-07-22T12:02:00,mfh,74.91
2023-07-22T12:03:00,mfh,75.29
2023-07-22T12:04:00,mfh,76.81
2023-07-22T12:05:00,mfh,76.18
2023-07-22T12:06:00,mfh,76.18
2023-07-22T12:07:00,mfh,76.15
2023-07-22T12:08:00,mfh,75.57
2023-07-22T12:09:00,mfh,75.63
2023-07-22T12:10:00,mfh,75.58
2023-07-22T12:11:00,mfh,75.69
2023-07-22T12:12:00,mfh,75.67
2023-07-22T12:13:00,mfh,75.74
2023-07-22T12:14:00,mfh,76.53
2023-07-22T12:15:00,mfh,76.55
2023-07-22T12:16:00,mfh,76.74
2023-07-22T12:17:00,mfh,77.48
2023-07-22T12:18:00,mfh,77.90
2023-07-22T12:19:00,mfh,75.82
2023-07-22T12:20:00,mfh,74.99
2023-07-22T12:21:00,mfh,75.03
2023-07-22T12:22:00,mfh,75.48
2023-07-22T12:23:00,mfh,75.90
2023-07-22T12:24:00,mfh,74.10
2023-07-22T12:25:00,mfh,76.42
2023-07-22T12:26:00,mfh,77.50
2023-07-22T12:27:00,mfh,76.87
2023-07-22T12:28:00,mfh,76.67
2023-07-22T12:29:00,mfh,76.77
2023-07-22T12:30:00,mfh,76.24
2023-07-22T12:31:00,mfh,76.31
2023-07-22T12:32:00,mfh,75.55
2023-07-22T12:33:00,mfh,75.93
2023-07-22T12:34:00,mfh,75.90
2023-07-22T12:35:00,mfh,76.10
2023-07-22T12:36:00,mfh,76.11
2023-07-22T12:37:00,mfh,76.02
2023-07-22T12:38:00,mfh,76.13
2023-07-22T12:39:00,mfh,76.00
2023-07-22T12:40:00,mfh,75.38
2023-07-22T12:41:00,mfh,75.81
2023-07-22T12:42:00,mfh,75.81
2023-07-22T12:43:00,mfh,76.40
2023-07-22T12:44:00,mfh,77.16
2023-07-22T12:45:00,mfh,77.60
2023-07-22T12:46:00,mfh,77.24
2023-07-22T12:47:00,mfh,77.14
2023-07-22T12:48:00,mfh,77.08
2023-07-22T12:49:00,mfh,76.34
2023-07-22T12:50:00,mfh,76.29
2023-07-22T12:51:00,mfh,76.15
2023-07-22T12:52:00,mfh,76.38
2023-07-22T12:53:00,mfh,76.43
2023-07-22T12:54:00,mfh,76.31
2023-07-22T12:55:00,mfh,77.02
2023-07-22T12:56:00,mfh,76.91
2023-07-22T12:57:00,mfh,77.15
2023-07-22T12:58:00,mfh,77.01
2023-07-22T12:59:00,mfh,77.19
2023-07-22T13:00:00,mfh,77.09
2023-07-22T13:01:00,mfh,76.88
2023-07-22T13:02:00,mfh,76.19
2023-07-22T13:03:00,mfh,76.10
2023-07-22T13:04:00,mfh,76.96
2023-07-22T13:05:00,mfh,77.10
2023-07-22T13:06:00,mfh,76.36
2023-07-22T13:07:00,mfh,76.30
2023-07-22T13:08:00,mfh,76.25
2023-07-22T13:09:00,mfh,76.42
2023-07-22T13:10:00,mfh,76.38
2023-07-22T13:11:00,mfh,75.93
2023-07-22T13:12:00,mfh,75.84
2023-07-22T13:13:00,mfh,75.15
2023-07-22T13:14:00,mfh,76.05
2023-07-22T13:15:00,mfh,75.82
2023-07-22T13:16:00,mfh,76.26
2023-07-22T13:17:00,mfh,76.23
2023-07-22T13:18:00,mfh,76.74